DL9MSR Weather Reports


time (UTC)temp
C
wind
direction
speed
KPH
gust
KPH
rain 1hr
cm
rain 24hr
cm
rain mn
cm
humidity
%
barometer
mb
20260506200518 -17 0.0 0.0 0.00 0.48 0.48
20260506200020 -17 0.0 0.0 0.00 0.48 0.48
20260506195020 -17 0.0 0.0 0.00 0.48 0.48
20260506194018 -17 0.0 0.0 0.00 0.48 0.48
20260506193019 -17 0.0 0.0 0.00 0.48 0.48
20260506192018 -17 0.0 0.0 0.00 0.48 0.48
20260506191041 -17 0.0 0.0 0.00 0.48 0.48
20260506190518 -17 0.0 0.0 0.00 0.48 0.48
20260506185518 -17 0.0 0.0 0.00 0.48 0.48
20260506185023 -17 0.0 0.0 0.00 0.48 0.48
20260506184018 -17 0.0 0.0 0.03 0.48 0.48
20260506183650 -17 0.0 0.0 0.03 0.48 0.48
20260506183027 -17 0.0 0.0 0.03 0.48 0.48
20260506182052 -17 0.0 0.0 0.05 0.48 0.48
20260506181612 8 0.0 0.0 0.05 0.48 0.48 92 1010.5
20260506181020 8 0.0 0.0 0.05 0.48 0.48 92
20260506180018 8 0.0 0.0 0.05 0.48 0.48 92
20260506175039 8 0.0 0.0 0.08 0.48 0.48 92
20260506174020 8 0.0 3.2 0.05 0.46 0.46 92
20260506173021 8 0.0 0.0 0.08 0.46 0.46 92
20260506172020 8 0.0 3.2 0.08 0.43 0.43 92
20260506171018 8 0.0 0.0 0.10 0.43 0.43 92
20260506170040 8 90 1.6 8.0 0.13 0.43 0.43 92
20260506165020 8 0.0 0.0 0.10 0.41 0.41 92
20260506164020 8 0.0 0.0 0.10 0.41 0.41 92 1010.0
20260506163021 8 0.0 4.8 0.08 0.38 0.38 92 1010.0
20260506162040 8 90 3.2 8.0 0.05 0.36 0.36 91 1010.1
20260506161626 8 0.0 0.0 0.05 0.33 0.33 92 1010.1
20260506160520 8 0.0 0.0 0.05 0.33 0.33 92 1010.1
20260506155520 -17 0.0 0.0 0.05 0.30 0.30
20260506154514 -17 0.0 0.0 0.05 0.30 0.30
20260506154029 8 0.0 0.0 0.05 0.30 0.30 91 1010.2
20260506153551 8 0.0 0.0 0.05 0.30 0.30 91 1010.1
20260506153020 8 0.0 1.6 0.08 0.30 0.30 91 1010.3
20260506152020 8 0.0 4.8 0.08 0.30 0.30 91 1010.3
20260506151022 8 0.0 6.4 0.10 0.28 0.28 91 1010.3
20260506150020 8 0.0 4.8 0.13 0.28 0.28 91 1010.2
20260506145019 8 0.0 0.0 0.13 0.25 0.25 91 1010.2
20260506144040 8 0.0 0.0 0.10 0.23 0.23 91 1010.1
20260506143020 8 0.0 0.0 0.13 0.23 0.23 90 1010.1
20260506142020 9 0.0 0.0 0.13 0.23 0.23 90 1010.2
20260506141515 9 0.0 3.2 0.13 0.18 0.18 90 1010.1
20260506140527 9 0.0 4.8 0.13 0.18 0.18 90 1010.1
20260506140029 10 0.0 1.6 0.10 0.15 0.15 90 1010.1
20260506135608 10 0.0 0.0 0.08 0.15 0.15 90 1010.1
20260506135020 10 0.0 0.0 0.08 0.15 0.15 90
20260506134020 10 0.0 0.0 0.08 0.15 0.15 89
20260506133028 10 0.0 0.0 0.05 0.10 0.10 88
20260506132508 10 0.0 0.0 0.05 0.10 0.10 88 1010.0
20260506132021 10 68 1.6 8.0 0.05 0.10 0.10 88 1010.0
20260506131039 -17 0.0 0.0 0.00 0.05 0.05
20260506130020 -17 0.0 0.0 0.00 0.05 0.05
20260506125519 -17 0.0 0.0 0.00 0.05 0.05
20260506124559 -17 0.0 0.0 0.05 0.05 0.05
20260506124012 10 0.0 0.0 0.05 0.05 0.05 88 1010.0
20260506123524 10 0.0 0.0 0.05 0.05 0.05 88 1009.9
20260506123019 10 0.0 0.0 0.05 0.05 0.05 88 1009.9
20260506122100 10 0.0 0.0 0.05 0.05 0.05 88 1009.9
20260506121019 10 0.0 1.6 0.05 0.05 0.05 88 1009.7
20260506120020 10 0.0 3.2 0.05 0.05 0.05 87 1009.8
20260506115019 10 0.0 0.0 0.05 0.05 0.05 86 1009.7
20260506114557 10 68 1.6 4.8 0.03 0.03 0.03 86 1009.6
20260506114119 10 0.0 0.0 0.03 0.03 0.03 84 1009.7
20260506113500 10 0.0 0.0 0.03 0.03 0.03 84 1009.6
20260506113039 10 0.0 0.0 0.03 0.03 0.03 84 1009.7
20260506112019 10 0.0 0.0 0.03 0.03 0.03 81 1009.6
20260506111019 10 68 1.6 6.4 0.03 0.03 0.03 79 1009.5
20260506110020 10 0.0 6.4 0.00 0.00 0.00 79 1009.5
20260506105019 10 0.0 4.8 0.00 0.00 0.00 79 1009.6
20260506104020 10 0.0 1.6 0.00 0.00 0.00 79 1009.6
20260506103019 10 68 1.6 8.0 0.00 0.00 0.00 79 1009.4
20260506102553 9 0.0 0.0 0.00 0.00 0.00 80 1009.5
20260506102107 9 0.0 0.0 0.00 0.00 0.00 80 1009.5
20260506101622 9 0.0 3.2 0.00 0.00 0.00 80 1009.5
20260506100519 9 0.0 6.4 0.00 0.00 0.00 80 1009.5
20260506095519 9 0.0 6.4 0.00 0.00 0.00 79 1009.5
20260506094519 9 90 1.6 8.0 0.00 0.00 0.00 79
20260506093520 10 68 1.6 9.7 0.00 0.00 0.00 79
20260506092519 10 68 4.8 20.9 0.00 0.00 0.00 78
20260506091519 10 68 1.6 11.3 0.00 0.00 0.00 77
20260506090518 10 68 3.2 14.5 0.00 0.00 0.00 76
20260506085520 10 45 1.6 17.7 0.00 0.00 0.00 77
20260506084518 10 68 3.2 14.5 0.00 0.00 0.00 75
20260506083539 10 90 1.6 12.9 0.00 0.00 0.00 74
20260506082612 9 0.0 6.4 0.00 0.00 0.00 75
20260506081518 9 68 6.4 19.3 0.00 0.00 0.00 74
20260506080518 9 68 1.6 9.7 0.00 0.00 0.00 75
20260506073520 9 90 3.2 16.1 0.00 0.00 0.00 76
20260506072539 9 68 12.9 12.9 0.00 0.00 0.00 76
20260506071503 9 0.0 0.0 0.00 0.00 0.00 78
20260506070625 9 0.0 0.0 0.00 0.00 0.00 77
20260506062013 9 0.0 0.0 0.00 0.00 0.00 78
20260506061040 9 68 3.2 12.9 0.00 0.00 0.00 78
20260506051020 -17 0.0 0.0 0.00 0.00 0.00
20260506044520 -17 0.0 0.0 0.00 0.00 0.00
20260506043541 -17 0.0 0.0 0.00 0.00 0.00
20260506042524 -17 0.0 0.0 0.00 0.00 0.00
20260506042043 9 0.0 0.0 0.00 0.00 0.00 75
20260506041631 9 0.0 0.0 0.00 0.00 0.00 75
20260506040521 9 0.0 0.0 0.00 0.00 0.00 74
20260506040019 9 0.0 3.2 0.00 0.03 0.00 74
20260506035501 9 0.0 4.8 0.00 0.03 0.00 74
20260506034519 9 68 1.6 8.0 0.00 0.05 0.00 74
20260506033520 9 0.0 0.0 0.00 0.05 0.00 75
20260506032600 9 0.0 0.0 0.00 0.05 0.00 75
20260506032004 9 68 3.2 11.3 0.00 0.05 0.00 76
20260506031020 9 0.0 0.0 0.00 0.08 0.00 77
20260506030103 10 0.0 0.0 0.00 0.15 0.00 78
20260506025459 10 0.0 0.0 0.00 0.15 0.00 78
20260506024521 10 68 1.6 4.8 0.00 0.15 0.00 78
20260506024019 10 0.0 6.4 0.00 0.15 0.00 78
20260506023520 10 68 1.6 6.4 0.00 0.15 0.00 79
20260506022520 10 45 1.6 9.7 0.00 0.18 0.00 79
20260506021520 10 0.0 6.4 0.00 0.20 0.00 79
20260506020520 10 0.0 6.4 0.00 0.23 0.00 79
20260506015524 10 68 3.2 14.5 0.00 0.23 0.00 79
20260506014519 10 0.0 0.0 0.00 0.23 0.00 80
20260506014019 -17 0.0 0.0 0.00 0.23 0.00
20260506013019 -17 0.0 0.0 0.00 0.25 0.00
20260506012549 10 0.0 0.0 0.00 0.25 0.00 80
20260506012107 10 68 1.6 11.3 0.00 0.25 0.00 80
20260506011019 10 68 1.6 9.7 0.00 0.25 0.00 80
20260506010019 10 68 1.6 8.0 0.00 0.25 0.00 81
20260506005039 10 68 1.6 4.8 0.00 0.25 0.00 81
20260506004019 10 0.0 0.0 0.00 0.25 0.00 82
20260506003019 10 0.0 0.0 0.00 0.28 0.00 82
20260506002519 10 0.0 0.0 0.00 0.28 0.00 81
20260506001519 10 68 3.2 11.3 0.00 0.28 0.00 81
20260506000520 10 68 1.6 8.0 0.00 0.28 0.00 81
20260505235519 10 68 1.6 8.0 0.00 0.28 0.00 81
20260505234519 10 0.0 9.7 0.00 0.28 0.00 81
20260505233519 10 0.0 1.6 0.00 0.30 0.00 81
20260505232521 11 68 1.6 8.0 0.00 0.30 0.00 81
20260505231609 11 0.0 3.2 0.00 0.30 0.00 80
20260505230518 11 0.0 4.8 0.00 0.41 0.00 80
20260505225539 11 0.0 0.0 0.00 0.41 0.00 80
20260505225047 11 0.0 0.0 0.00 0.41 0.00 80
20260505224019 11 0.0 0.0 0.00 0.41 0.00 80
20260505223532 11 0.0 0.0 0.00 0.41 0.00 81
20260505223027 11 0.0 3.2 0.00 0.41 0.00 81
20260505222014 11 68 1.6 1.6 0.00 0.41 0.00 82
20260505221459 11 0.0 0.0 0.00 0.41 0.00 82
20260505221041 11 0.0 1.6 0.00 0.41 0.00 83
20260505220019 11 0.0 4.8 0.00 0.41 0.41 84
20260505215507 11 0.0 0.0 0.00 0.41 0.41 86
20260505215037 11 0.0 0.0 0.00 0.41 0.41 86
20260505214556 11 0.0 0.0 0.00 0.41 0.41 87
20260505214039 11 0.0 0.0 0.00 0.41 0.41 87
20260505212211 -17 0.0 0.0 0.00 0.41 0.41
20260505211600 -17 0.0 0.0 0.00 0.41 0.41
20260505210613 -17 0.0 0.0 0.00 0.41 0.41
20260505210019 -17 0.0 0.0 0.00 0.41 0.41
20260505205018 -17 0.0 0.0 0.00 0.41 0.41
20260505204519 -17 0.0 0.0 0.00 0.41 0.41
20260505203518 -17 0.0 0.0 0.00 0.41 0.41
20260505203037 -17 0.0 0.0 0.00 0.41 0.41
20260505202519 -17 0.0 0.0 0.00 0.41 0.41
20260505201544 -17 0.0 0.0 0.00 0.41 0.41